Location: Piotrkow Trybunalski
(51.4000°N, 19.6830°E)
Time: 09:22:31
(UTC+01:00)

BlueWalker 3 - Pass Details

Date: 04 December 2022
Orbit: 499 x 517 km, 53.2° (Epoch: 29 January)

Event Time Altitude Azimuth Distance (km) Brightness Sun altitude
Rises 16:19:25 0° 267° (W) 2,634 7.0 -6.8°
Reaches altitude 10° 16:21:38 10° 270° (W) 1,744 5.8 -7.1°
Maximum altitude 16:25:34 68° 353° (N) 556 2.1 -7.6°
Drops below altitude 10° 16:29:29 10° 78° (ENE) 1,732 4.0 -8.2°
Enters shadow 16:29:30 10° 78° (ENE) 1,736 4.0 -8.2°
